Stations météo

réclame
Mon MeteoGroup
J6-A, Pays-Bas (6211): Température de l'air & dewpoint: 18.01.2018 10:00:00 - 24.01.2018 10:00:00 (CET)J6-A, Pays-Bas (6211): Vitesse du vent & gusts: 18.01.2018 10:00:00 - 24.01.2018 10:00:00 (CET)J6-A, Pays-Bas (6211): Direction du vent: 18.01.2018 10:00:00 - 24.01.2018 10:00:00 (CET)J6-A, Pays-Bas (6211): reduced air pressure: 18.01.2018 10:00:00 - 24.01.2018 10:00:00 (CET)J6-A, Pays-Bas (6211): visibility: 18.01.2018 10:00:00 - 24.01.2018 10:00:00 (CET)
Date & Time tt [°C] td [°C] ff [km/h] ff [knt] fx [km/h] fx [knt] dd ppp [hPa] vv [km]
24.01.2018 10:00:00 9,1 8,2 61 33 72 39 S 1000,6 -
24.01.2018 09:00:00 8,9 7,8 58 31 68 37 S 1001,9 -
24.01.2018 08:00:00 8,8 7,3 58 31 65 35 S 1002,8 -
24.01.2018 07:00:00 8,7 7,4 54 29 61 33 S 1004,5 -
24.01.2018 06:00:00 8,3 6,7 50 27 61 33 S 1006,0 10
24.01.2018 05:00:00 8,5 7,1 47 25 58 31 S 1006,9 12
24.01.2018 04:00:00 8,4 7,3 43 23 50 27 S 1007,9 10
24.01.2018 03:00:00 8,4 6,3 43 23 61 33 SSW 1008,9 13
24.01.2018 02:00:00 8,4 6,5 50 27 61 33 SSW 1009,4 13
24.01.2018 01:00:00 8,4 7,0 36 19 54 29 SW 1009,9 15
24.01.2018 00:00:00 8,5 7,3 43 23 58 31 SW 1009,6 14
23.01.2018 23:00:00 8,7 7,6 50 27 65 35 SSW 1009,4 13
23.01.2018 22:00:00 8,9 7,8 54 29 - - SSW 1008,9 12
23.01.2018 21:00:00 9,2 7,7 58 31 68 37 SSW 1008,5 13
23.01.2018 20:00:00 8,6 7,6 47 25 58 31 SSW 1008,2 10
23.01.2018 19:00:00 8,3 7,7 47 25 54 29 SSW 1008,3 8
23.01.2018 18:00:00 7,8 7,4 54 29 54 29 SSW 1008,2 5
23.01.2018 17:00:00 7,8 7,1 55 30 54 29 SSW 1008,4 9
23.01.2018 16:00:00 7,6 6,9 43 23 54 29 S 1008,9 8
23.01.2018 15:00:00 8,0 7,1 50 27 58 31 SSW 1009,1 8
23.01.2018 14:00:00 7,5 6,8 40 21 54 29 S 1010,0 9
23.01.2018 13:00:00 6,9 6,8 43 23 50 27 S 1011,5 -
23.01.2018 12:00:00 6,8 6,2 50 27 50 27 S 1012,6 7
23.01.2018 11:00:00 7,5 4,8 48 26 47 25 S 1013,1 10
23.01.2018 10:00:00 7,1 4,9 40 21 - - SSW 1013,6 16
23.01.2018 09:00:00 6,8 4,9 36 19 40 21 SSW 1013,6 16
23.01.2018 08:00:00 6,6 4,6 25 14 32 18 SSW 1014,4 17
23.01.2018 07:00:00 6,5 4,2 32 18 40 21 SSW 1014,6 19
23.01.2018 06:00:00 6,4 4,2 32 18 40 21 SSW 1014,9 19
23.01.2018 05:00:00 6,5 4,6 29 16 36 19 SSW 1015,3 17
23.01.2018 04:00:00 6,7 4,8 32 18 - - SW 1015,6 15
23.01.2018 03:00:00 6,8 4,4 36 19 43 23 SW 1015,4 19
23.01.2018 02:00:00 6,9 4,7 36 19 40 21 WSW 1015,3 16
23.01.2018 01:00:00 7,1 5,3 32 18 - - WSW 1015,0 13
23.01.2018 00:00:00 7,1 5,3 32 18 40 21 WSW 1014,7 12
22.01.2018 23:00:00 7,2 5,3 32 18 43 23 W 1013,8 12
22.01.2018 22:00:00 7,4 5,2 36 19 - - W 1013,3 13
22.01.2018 21:00:00 7,3 5,2 32 18 43 23 W 1012,6 13
22.01.2018 20:00:00 7,4 5,1 36 19 43 23 W 1011,9 13
22.01.2018 19:00:00 7,5 4,9 36 19 47 25 W 1011,3 13
22.01.2018 18:00:00 7,4 4,8 44 24 47 25 W 1010,3 10
22.01.2018 17:00:00 7,2 4,9 32 18 50 27 W 1009,6 11
22.01.2018 16:00:00 7,1 4,9 40 21 - - W 1008,0 11
22.01.2018 15:00:00 7,0 4,9 36 19 43 23 W 1007,3 11
22.01.2018 14:00:00 7,0 4,9 36 19 50 27 W 1006,4 10
22.01.2018 13:00:00 7,0 5,0 40 21 47 25 W 1005,8 9
22.01.2018 12:00:00 7,0 5,1 36 19 43 23 W 1005,7 10
22.01.2018 11:00:00 7,0 5,0 36 19 43 23 W 1005,0 11
22.01.2018 10:00:00 7,0 4,9 36 19 - - WSW 1004,2 13
22.01.2018 09:00:00 6,9 5,0 44 24 43 23 W 1003,7 10
22.01.2018 08:00:00 6,8 5,0 36 19 43 23 W 1003,1 12
22.01.2018 07:00:00 7,0 5,0 32 18 40 21 W 1002,8 14
22.01.2018 06:00:00 6,8 5,1 32 18 40 21 W 1002,3 15
22.01.2018 05:00:00 6,5 5,3 32 18 40 21 W 1001,6 13
22.01.2018 04:00:00 6,4 5,7 32 18 40 21 W 1001,6 14
22.01.2018 03:00:00 5,8 5,5 32 18 43 23 SW 1001,6 -
22.01.2018 02:00:00 5,5 4,9 46 25 47 25 S 1002,3 3,3
22.01.2018 01:00:00 5,0 4,0 40 21 50 27 SSE 1003,2 12
22.01.2018 00:00:00 4,2 3,2 47 25 54 29 SSE 1004,3 4,8
21.01.2018 23:00:00 4,2 3,0 43 23 54 29 SE 1004,9 9
21.01.2018 22:00:00 3,6 2,1 40 21 47 25 SE 1006,9 8
21.01.2018 21:00:00 3,9 2,0 40 21 47 25 SSE 1007,6 23
21.01.2018 20:00:00 3,9 1,8 36 19 43 23 S 1009,1 10
21.01.2018 19:00:00 5,5 1,0 25 14 29 16 SE 1010,3 49
21.01.2018 18:00:00 5,1 0,7 25 14 29 16 SSE 1011,1 48
21.01.2018 17:00:00 4,9 1,2 22 12 25 14 S 1011,5 40
21.01.2018 16:00:00 5,1 1,9 22 12 - - S 1012,2 10
21.01.2018 15:00:00 5,3 1,7 14 8 22 12 S 1012,6 45
21.01.2018 14:00:00 5,3 1,4 14 8 18 10 SSW 1013,4 46
21.01.2018 13:00:00 5,3 1,5 11 6 22 12 SW 1013,6 35
21.01.2018 12:00:00 5,4 0,6 13 7 14 8 WSW 1013,9 10
21.01.2018 11:00:00 5,4 0,3 9 5 14 8 WSW 1013,8 10
21.01.2018 10:00:00 5,3 0,7 11 6 18 10 W 1013,5 49
21.01.2018 09:00:00 5,2 0,0 14 8 22 12 NW 1012,9 49
21.01.2018 08:00:00 5,0 0,6 18 10 25 14 WNW 1012,4 34
21.01.2018 07:00:00 5,3 0,9 22 12 32 18 NW 1011,7 49
21.01.2018 06:00:00 5,2 1,2 25 14 36 19 NW 1011,0 45
21.01.2018 05:00:00 5,2 0,7 35 19 36 19 NW 1010,5 10
21.01.2018 04:00:00 5,2 -0,2 32 18 43 23 NW 1009,8 48
21.01.2018 03:00:00 5,1 0,5 36 19 43 23 NW 1008,8 48
21.01.2018 02:00:00 4,6 0,8 25 14 54 29 NW 1007,9 50
21.01.2018 01:00:00 5,0 0,0 36 19 47 25 NW 1006,8 49
21.01.2018 00:00:00 4,9 -0,3 40 21 50 27 NW 1005,4 50
20.01.2018 23:00:00 5,0 -0,9 36 19 47 25 NW 1004,5 50
20.01.2018 22:00:00 4,2 -0,2 36 19 54 29 NW 1003,5 29
20.01.2018 21:00:00 4,9 0,4 41 22 54 29 NW 1002,4 10
20.01.2018 20:00:00 4,8 1,1 36 19 43 23 NW 1001,4 44
20.01.2018 19:00:00 5,2 1,3 25 14 36 19 NW 1000,6 36
20.01.2018 18:00:00 5,4 0,4 22 12 29 16 WNW 999,7 28
20.01.2018 17:00:00 5,3 1,3 22 12 25 14 W 999,2 33
20.01.2018 16:00:00 5,2 1,4 22 12 - - W 998,7 24
20.01.2018 15:00:00 5,0 1,8 22 12 29 16 WSW 998,5 19
20.01.2018 14:00:00 4,9 2,0 22 12 29 16 WSW 998,7 17
20.01.2018 13:00:00 4,8 1,5 25 14 29 16 WSW 999,4 21
20.01.2018 12:00:00 4,8 1,6 28 15 29 16 SW 1000,0 10
20.01.2018 11:00:00 4,6 1,4 22 12 32 18 SSW 1000,5 19
20.01.2018 10:00:00 4,7 0,8 25 14 - - SSW 1000,6 24
20.01.2018 09:00:00 4,7 0,9 25 14 29 16 SW 1000,9 23
20.01.2018 08:00:00 4,7 0,5 22 12 32 18 WSW 1001,3 29
20.01.2018 07:00:00 4,7 0,6 29 16 36 19 WSW 1001,4 24
20.01.2018 06:00:00 4,9 -0,3 35 19 40 21 W 1001,6 10
20.01.2018 05:00:00 4,9 -0,2 36 19 43 23 WSW 1002,1 36
20.01.2018 04:00:00 5,0 0,4 50 27 - - WSW 1002,2 10
20.01.2018 03:00:00 5,1 0,6 47 25 54 29 WSW 1002,4 20
20.01.2018 02:00:00 5,1 0,9 47 25 58 31 WSW 1002,7 24
20.01.2018 01:00:00 5,3 1,1 43 23 50 27 WSW 1003,1 24
20.01.2018 00:00:00 5,3 0,7 50 27 54 29 WSW 1003,2 10
19.01.2018 23:00:00 5,4 0,2 43 23 54 29 WSW 1003,3 27
19.01.2018 22:00:00 5,0 1,1 43 23 54 29 WSW 1003,5 27
19.01.2018 21:00:00 5,4 0,6 43 23 54 29 WSW 1003,2 33
19.01.2018 20:00:00 4,0 1,5 34 18 58 31 SW 1003,6 10
19.01.2018 19:00:00 4,5 1,0 40 21 58 31 WSW 1003,5 40
19.01.2018 18:00:00 5,0 0,5 54 29 50 27 WSW 1004,0 10
19.01.2018 17:00:00 4,9 0,7 40 21 47 25 WSW 1003,8 23
19.01.2018 16:00:00 4,9 0,5 40 21 - - WSW 1003,8 26
19.01.2018 15:00:00 4,7 0,8 40 21 47 25 WSW 1003,7 22
19.01.2018 14:00:00 4,9 1,0 36 19 47 25 WSW 1003,9 25
19.01.2018 13:00:00 4,7 0,8 36 19 47 25 WSW 1004,0 28
19.01.2018 12:00:00 4,9 0,7 40 21 47 25 WSW 1004,0 25
19.01.2018 11:00:00 5,1 1,5 50 27 50 27 WSW 1003,7 10
19.01.2018 10:00:00 5,1 0,7 44 24 47 25 W 1003,4 10
19.01.2018 09:00:00 5,2 0,7 42 23 43 23 W 1003,2 10
19.01.2018 08:00:00 5,2 1,0 41 22 43 23 W 1002,7 10
19.01.2018 07:00:00 5,2 0,1 44 24 47 25 W 1002,1 10
19.01.2018 06:00:00 5,2 0,9 44 24 43 23 W 1001,8 10
19.01.2018 05:00:00 5,5 0,7 41 22 43 23 W 1001,4 10
19.01.2018 04:00:00 5,5 1,2 44 24 43 23 W 1001,2 10
19.01.2018 03:00:00 5,4 0,9 41 22 43 23 W 1000,9 10
19.01.2018 02:00:00 5,5 1,5 42 23 43 23 W 1000,4 10
19.01.2018 01:00:00 5,7 2,2 37 20 40 21 W 1000,0 10
19.01.2018 00:00:00 5,8 1,9 35 19 43 23 W 999,7 10
18.01.2018 23:00:00 5,1 1,5 28 15 36 19 WSW 999,7 10
18.01.2018 22:00:00 5,8 1,4 34 18 - - W 999,4 10
18.01.2018 21:00:00 5,6 1,2 34 18 32 18 W 999,1 10
18.01.2018 20:00:00 5,6 1,4 29 16 29 16 W 998,9 10
18.01.2018 19:00:00 5,5 0,8 31 17 36 19 W 998,6 10
18.01.2018 18:00:00 5,4 0,5 42 23 40 21 W 998,4 10
18.01.2018 17:00:00 5,7 0,6 41 22 43 23 W 997,8 10
18.01.2018 16:00:00 5,5 1,9 48 26 50 27 W 997,1 10
18.01.2018 15:00:00 5,7 0,8 54 29 50 27 W 996,0 10
18.01.2018 14:00:00 5,2 1,8 44 24 54 29 W 995,8 10
18.01.2018 13:00:00 4,3 1,7 48 26 68 37 NW 995,1 10
18.01.2018 12:00:00 5,2 1,4 54 29 65 35 NW 994,0 10
18.01.2018 11:00:00 5,1 1,5 68 37 72 39 NW 991,7 10
18.01.2018 10:00:00 4,3 2,0 74 40 83 45 NW 988,6 10

tt = Température de l'air
td = dewpoint
ff = Vitesse du vent
fx = gusts
dd = Direction du vent
ppp = reduced air pressure
vv = visibility

stations d'obs. à proximité